Kremmling, CO

7:58 AM MDT on October 17, 2017 (GMT -0600)
Kremmling

Weather History for K20V - March, 2014

Change the Weather History Date:

Thursday, March 27, 2014

  Actual Average Record
Temperature  
Mean Temperature 36 °F -  
Max Temperature 41 °F - 66 °F (2007)
Min Temperature 30 °F - 3 °F (2009)
Degree Days  
Heating Degree Days 30    
Month to date heating degree days  
Cooling Degree Days 0    
Month to date cooling degree days  
Moisture  
Dew Point 23 °F    
Average Humidity 68    
Maximum Humidity 93    
Minimum Humidity 31    
Precipitation  
Precipitation 0.02 in - 0.09 in (2011)
Sea Level Pressure  
Sea Level Pressure 29.74 in    
Wind  
Wind Speed 7 mph (West)    
Max Wind Speed 18 mph    
Max Gust Speed 25 mph    
Visibility 9 miles    
Events Snow    
T = Trace of Precipitation, MM = Missing Value Source: NWS Daily Summary

Daily Weather History Graph

Daily Weather History Graph

Search for Another Location

Airport or City:

Trip Planner

Search our weather history database for the weather conditions in past years. The results will help you decide how hot, cold, wet, or windy it might be!

Date:

Astronomy

Mar. 27, 2014 Rise Set
Actual Time 6:57 AM MDT 7:24 PM MDT
Civil Twilight 6:30 AM MDT 7:51 PM MDT
Nautical Twilight 5:58 AM MDT 8:24 PM MDT
Astronomical Twilight 5:25 AM MDT 8:56 PM MDT
Moon 4:50 AM MDT (3/27) 4:15 PM MDT (3/27)
Length of Visible Light 13h 21m
Length of Day
12h 27m
Waning Crescent, 12% of the Moon is Illuminated
Mar 27
Waning Crescent
Mar 30
New
Apr 7
First Quarter
Apr 15
Full
Apr 22
Last Quarter

Hourly Weather History & Observations

Time (MDT) Temp. Windchill Dew Point Humidity Pressure Visibility Wind Dir Wind Speed Gust Speed Precip Events Conditions
12:16 AM 33.8 °F 24.8 °F 30.2 °F 87% 29.54 in 3.0 mi West 12.7 mph - N/A Snow Light Snow
12:36 AM 33.8 °F 27.0 °F 32.0 °F 93% 29.53 in 7.0 mi West 8.1 mph - N/A Snow Light Snow
12:56 AM 32.0 °F 28.7 °F 28.4 °F 87% 29.53 in 10.0 mi West 3.5 mph - N/A   Scattered Clouds
1:16 AM 32.0 °F - 28.4 °F 87% 29.54 in 10.0 mi Calm Calm - N/A   Mostly Cloudy
1:36 AM 32.0 °F 25.6 °F 28.4 °F 87% 29.55 in 10.0 mi SW 6.9 mph - N/A   Scattered Clouds
1:56 AM 32.0 °F - 26.6 °F 80% 29.56 in 10.0 mi Calm Calm - N/A   Clear
2:16 AM 32.0 °F 28.7 °F 26.6 °F 80% 29.57 in 10.0 mi North 3.5 mph - N/A   Scattered Clouds
2:36 AM 30.2 °F - 26.6 °F 86% 29.57 in 10.0 mi Calm Calm - N/A   Clear
2:56 AM 30.2 °F - 26.6 °F 86% 29.58 in 10.0 mi Calm Calm - N/A   Mostly Cloudy
3:16 AM 32.0 °F 26.4 °F 26.6 °F 80% 29.59 in 10.0 mi NW 5.8 mph - N/A   Mostly Cloudy
3:35 AM 32.0 °F 27.5 °F 26.6 °F 80% 29.59 in 10.0 mi NW 4.6 mph - N/A   Mostly Cloudy
3:56 AM 32.0 °F - 24.8 °F 75% 29.60 in 10.0 mi Calm Calm - N/A   Overcast
4:16 AM 32.0 °F 25.6 °F 23.0 °F 69% 29.61 in 10.0 mi NNW 6.9 mph - N/A   Overcast
4:36 AM 32.0 °F 24.2 °F 23.0 °F 69% 29.62 in 10.0 mi WNW 9.2 mph - N/A   Mostly Cloudy
4:56 AM 32.0 °F 21.6 °F 23.0 °F 69% 29.63 in 10.0 mi NNW 15.0 mph 19.6 mph N/A   Mostly Cloudy
5:16 AM 32.0 °F 24.2 °F 23.0 °F 69% 29.65 in 10.0 mi NNW 9.2 mph - N/A   Overcast
5:36 AM 32.0 °F 24.8 °F 21.2 °F 64% 29.66 in 10.0 mi North 8.1 mph - N/A   Overcast
5:56 AM 32.0 °F 28.7 °F 21.2 °F 64% 29.68 in 10.0 mi NNW 3.5 mph - N/A   Overcast
6:16 AM 32.0 °F 25.6 °F 21.2 °F 64% 29.68 in 10.0 mi WNW 6.9 mph - N/A   Overcast
6:36 AM 30.2 °F 25.4 °F 21.2 °F 69% 29.69 in 10.0 mi NW 4.6 mph - N/A   Overcast
6:56 AM 30.2 °F 26.7 °F 19.4 °F 64% 29.69 in 10.0 mi West 3.5 mph - N/A   Overcast
7:16 AM 30.2 °F 25.4 °F 23.0 °F 75% 29.71 in 10.0 mi South 4.6 mph - N/A   Overcast
7:36 AM 30.2 °F - 21.2 °F 69% 29.72 in 10.0 mi Calm Calm - N/A   Overcast
7:56 AM 30.2 °F - 23.0 °F 75% 29.72 in 10.0 mi Calm Calm - N/A   Overcast
8:16 AM 30.2 °F - 23.0 °F 75% 29.73 in 5.0 mi Calm Calm - N/A Snow Light Snow
8:36 AM 32.0 °F - 23.0 °F 69% 29.74 in 10.0 mi Calm Calm - N/A   Overcast
8:56 AM 32.0 °F - 23.0 °F 69% 29.74 in 10.0 mi Calm Calm - N/A   Overcast
9:16 AM 32.0 °F 23.6 °F 23.0 °F 69% 29.75 in 10.0 mi WSW 10.4 mph - N/A   Overcast
9:36 AM 32.0 °F 24.2 °F 21.2 °F 64% 29.75 in 10.0 mi WSW 9.2 mph - N/A   Mostly Cloudy
9:56 AM 32.0 °F 21.6 °F 21.2 °F 64% 29.76 in 10.0 mi WSW 15.0 mph - N/A   Mostly Cloudy
10:16 AM 33.8 °F 25.8 °F 23.0 °F 65% 29.77 in 10.0 mi West 10.4 mph - N/A   Mostly Cloudy
10:36 AM 33.8 °F 25.8 °F 21.2 °F 60% 29.77 in 10.0 mi West 10.4 mph - N/A   Scattered Clouds
10:56 AM 35.6 °F 27.1 °F 23.0 °F 60% 29.77 in 10.0 mi WSW 12.7 mph 21.9 mph N/A   Scattered Clouds
11:16 AM 35.6 °F 27.5 °F 21.2 °F 56% 29.77 in 10.0 mi West 11.5 mph - N/A   Clear
11:36 AM 37.4 °F 31.4 °F 21.2 °F 52% 29.77 in 10.0 mi WSW 8.1 mph 16.1 mph N/A   Mostly Cloudy
11:56 AM 37.4 °F 33.8 °F 17.6 °F 45% 29.78 in 10.0 mi NW 4.6 mph - N/A   Mostly Cloudy
12:16 PM 37.4 °F 32.8 °F 15.8 °F 41% 29.78 in 10.0 mi NW 5.8 mph - N/A   Overcast
12:36 PM 41.0 °F 35.8 °F 12.2 °F 31% 29.77 in 10.0 mi West 8.1 mph - N/A   Overcast
12:56 PM 41.0 °F 33.1 °F 14.0 °F 33% 29.77 in 10.0 mi WSW 15.0 mph 19.6 mph N/A   Overcast
1:16 PM 41.0 °F 34.3 °F 17.6 °F 39% 29.77 in 10.0 mi WSW 11.5 mph - N/A   Mostly Cloudy
1:36 PM 41.0 °F 34.3 °F 14.0 °F 33% 29.77 in 10.0 mi West 11.5 mph - N/A   Mostly Cloudy
1:56 PM 37.4 °F 30.8 °F 19.4 °F 48% 29.77 in 10.0 mi SSW 9.2 mph - N/A   Overcast
2:16 PM 37.4 °F 29.8 °F 24.8 °F 60% 29.77 in 7.0 mi SW 11.5 mph 17.3 mph N/A   Mostly Cloudy
2:36 PM 39.2 °F 34.2 °F 23.0 °F 52% 29.75 in 10.0 mi SSW 6.9 mph - N/A   Scattered Clouds
2:56 PM 41.0 °F 35.8 °F 21.2 °F 45% 29.74 in 10.0 mi South 8.1 mph - N/A   Mostly Cloudy
3:15 PM 41.0 °F 36.4 °F 19.4 °F 42% 29.74 in 10.0 mi WSW 6.9 mph - N/A   Overcast
3:36 PM 41.0 °F 33.5 °F 15.8 °F 36% 29.74 in 10.0 mi West 13.8 mph 19.6 mph N/A   Overcast
3:51 PM 37.4 °F 27.5 °F 23.0 °F 56% 29.77 in 7.0 mi WSW 18.4 mph 25.3 mph N/A   Overcast
4:16 PM 32.0 °F 25.6 °F 28.4 °F 87% 29.78 in 1.8 mi WSW 6.9 mph - N/A Snow Light Snow
4:36 PM 33.8 °F 25.8 °F 28.4 °F 81% 29.77 in 7.0 mi SW 10.4 mph 19.6 mph N/A Snow Light Snow
4:56 PM 33.8 °F 23.2 °F 26.6 °F 75% 29.77 in 10.0 mi WSW 17.3 mph 21.9 mph N/A   Mostly Cloudy
5:16 PM 33.8 °F 23.2 °F 26.6 °F 75% 29.79 in 5.0 mi WSW 17.3 mph 25.3 mph N/A Snow Light Snow
5:35 PM 33.8 °F 25.8 °F 28.4 °F 81% 29.79 in 10.0 mi WSW 10.4 mph 16.1 mph N/A   Overcast
5:56 PM 33.8 °F 25.8 °F 26.6 °F 75% 29.79 in 10.0 mi WSW 10.4 mph - N/A   Mostly Cloudy
6:15 PM 33.8 °F 25.3 °F 24.8 °F 70% 29.80 in 10.0 mi WSW 11.5 mph 19.6 mph N/A   Scattered Clouds
6:36 PM 33.8 °F 28.6 °F 24.8 °F 70% 29.80 in 10.0 mi WSW 5.8 mph - N/A   Clear
6:56 PM 33.8 °F - 23.0 °F 65% 29.80 in 10.0 mi Calm Calm - N/A   Clear
7:16 PM 33.8 °F 29.6 °F 24.8 °F 70% 29.81 in 10.0 mi SSE 4.6 mph - N/A   Clear
7:36 PM 33.8 °F - 23.0 °F 65% 29.81 in 10.0 mi Calm Calm - N/A   Mostly Cloudy
7:56 PM 33.8 °F 23.5 °F 23.0 °F 65% 29.82 in 10.0 mi SW 16.1 mph 20.7 mph N/A   Overcast
8:16 PM 32.0 °F 24.2 °F 23.0 °F 69% 29.82 in 10.0 mi West 9.2 mph 18.4 mph N/A   Mostly Cloudy
8:36 PM 33.8 °F 27.7 °F 24.8 °F 70% 29.83 in 10.0 mi West 6.9 mph - N/A   Scattered Clouds
8:56 PM 33.8 °F 25.3 °F 26.6 °F 75% 29.87 in 4.0 mi NNW 11.5 mph 24.2 mph N/A Snow Light Snow
9:16 PM 30.2 °F 25.4 °F 28.4 °F 93% 29.88 in 0.5 mi West 4.6 mph - N/A Snow Heavy Snow
9:36 PM 30.2 °F 25.4 °F 28.4 °F 93% 29.90 in 0.5 mi NNW 4.6 mph - 0.01 in Snow Heavy Snow
9:55 PM 30.2 °F 20.8 °F 24.8 °F 80% 29.91 in 10.0 mi North 11.5 mph 17.3 mph 0.02 in   Overcast
10:16 PM 30.2 °F - 23.0 °F 75% 29.91 in 10.0 mi Calm Calm - N/A   Overcast
10:36 PM 30.2 °F 22.6 °F 19.4 °F 64% 29.92 in 10.0 mi NW 8.1 mph - N/A   Overcast
10:55 PM 30.2 °F 20.8 °F 21.2 °F 69% 29.93 in 10.0 mi NNW 11.5 mph 20.7 mph N/A   Overcast
11:16 PM 30.2 °F - 23.0 °F 75% 29.93 in 10.0 mi Calm Calm - N/A   Overcast
11:36 PM 30.2 °F 25.4 °F 21.2 °F 69% 29.94 in 10.0 mi NNW 4.6 mph - N/A   Overcast
11:56 PM 30.2 °F 25.4 °F 23.0 °F 75% 29.95 in 10.0 mi NNW 4.6 mph - N/A   Overcast